Regional Weather Roundup
Issued by NWS Northern Indiana

Home | Current Version | Previous Version | Text Only | Print | Product List | Glossary Off
Versions: 1 2 3 4 5 6 7 8 9 10 11 12 13 14 15 16 17 18 19 20 21 22 23 24 25 26 27 28 29 30 31 32 33 34 35 36 37 38 39 40 41 42 43 44 45 46 47 48 49 50

000
ASUS43 KIWX 251300
RWRIWX

KIWX WEATHER ROUNDUP
NATIONAL WEATHER SERVICE NORTHERN INDIANA
900 AM EDT THU MAY 25 2017

NOTE: "FAIR" INDICATES FEW OR NO CLOUDS BELOW 12,000 FEET WITH NO
SIGNIFICANT WEATHER AND/OR OBSTRUCTIONS TO VISIBILITY.

* THESE STATIONS ARE NOT UNDER NWS QUALITY CONTROL. THEY ALSO MAY NOT
  REPORT WEATHER SUCH AS PRECIPITATION OR FOG.

INZ001>027-251400-
NORTHERN INDIANA

CITY           SKY/WX    TMP DP  RH WIND       PRES   REMARKS
GARY*          CLOUDY    54  50  87 NW20      29.58R
MICHIGAN CITY* CLOUDY    50  50 100 N7        29.55R
SOUTH BEND     CLOUDY    57  55  93 N15       29.52R
ELKHART*       CLOUDY    57  55  94 N5        29.49S
GOSHEN         CLOUDY    59  55  87 N14       29.48R
MONTICELLO*    CLOUDY    55  53  95 NW15      29.51R FOG
ANGOLA*        CLOUDY    57  45  62 N7        29.47R
FORT WAYNE     DRIZZLE   60  58  92 N12       29.44R FOG
PERU/GRISSOM   DRIZZLE   59  59 100 NW13      29.46R

$$
INZ028>050-251400-
CENTRAL INDIANA

CITY           SKY/WX    TMP DP  RH WIND       PRES   REMARKS
LAFAYETTE      CLOUDY    54  54 100 NW17G29   29.52R FOG
KOKOMO*        LGT RAIN  59  57  93 NW15      29.47R
MUNCIE*        CLOUDY    62  59  90 N7        29.42R
INDIANAPOLIS   DRIZZLE   55  54  96 NW16G25   29.48R FOG

$$
MIZ043>046-050>051-056>058-064>065-071>073-077>080-251400-
SOUTHWEST LOWER MICHIGAN

CITY           SKY/WX    TMP DP  RH WIND       PRES   REMARKS
BATTLE CREEK   CLOUDY    57  56  96 N13       29.51R FOG
BENTON HARBOR  CLOUDY    54  51  90 VRB6      29.53R
COLDWATER*     HVY RAIN  57  57 100 NE9       29.49R
HILLSDALE*     RAIN      57  55  94 N8        29.47S
HOLLAND        CLOUDY    59  54  83 N9        29.54S
GRAND RAPIDS   CLOUDY    56  56 100 NE12      29.52F
KALAMAZOO      CLOUDY    57  54  89 N12       29.51S FOG
STURGIS*       CLOUDY    57  56  97 N10       29.49R
THREE RIVERS*  CLOUDY    57  56  94 N6        29.50R FOG

$$
OHZ001>008-015>018-024>025-251400-
NORTHWEST OHIO

CITY           SKY/WX    TMP DP  RH WIND       PRES   REMARKS
DEFIANCE       CLOUDY    59  57  93 N9        29.44R
FINDLAY        CLOUDY    64  57  78 E8        29.41R
TOLEDO EXPRESS CLOUDY    59  58  96 NE13      29.44R
TOLEDO METCALF CLOUDY    62  60  93 VRB6      29.45R
LIMA           CLOUDY    61  59  93 NE3       29.41R

$$
AND FOR LAKE MICHIGAN COASTAL AND OPEN LAKE BUOY OBSERVATIONS

STATION/POSITION TEMP    WIND        PRES    VSBY  WAVE
                 AIR SEA DIR/SP/G                  HT/PER
                 (F)     (DEG/KT/KT) (MB)    (MI)  (FT/S)
CALUMET HARBOR    51     330/ 12/ 15 1001.4R
MICHIGAN CITY     49     330/ 21/ 24   N/A
BURNS HARBOR      50     340/ 17/ 22 1001.4R
SOUTH LAKE BUOY   46 45  360/ 14/ 17 1001.2          3/ 5
4 MI NW BRIDGMAN  53 56   20/ 16/ 21 1000.5R         5/ 5
MICHIGAN CITY     49 52  340/ 16/ 19   N/A           5/ 5

$$
&&




USA.gov is the U.S. government's official web portal to all federal, state and local government web resources and services.